Location: Newark
(13.6797°N, 8.5297°E)
Time: 03:35:00
(UTC+00:00)

Altair - Pass Details

Date: 29 January 2020
Orbit: 1502 x 1682 km, 47.2° (Epoch: 16 February)

Event Time Altitude Azimuth Distance (km) Brightness Sun altitude
Rises 05:59:06 0° 245° (WSW) 4,771 9.6 0.5°
Reaches altitude 10° 06:02:28 10° 253° (WSW) 3,812 9.1 1.2°
Maximum altitude 06:11:17 38° 318° (NW) 2,323 8.1 3.3°
Drops below altitude 10° 06:20:24 10° 23° (NNE) 3,922 9.7 5.3°
Sets 06:23:58 0° 32° (NNE) 4,922 10.3 6.2°
